STARLINK-35300

Last updated on Mon Oct 20 2025 00:02:07 GMT+0000 (Coordinated Universal Time)

1 65800U 25218K 25292.26398046 .00103177 00000+0 18717-2 0 9999 2 65800 97.6026 152.8373 0001477 92.9222 267.2197 15.49223266 3642
UTC large
Height (km)
Speed (km/s)
/
Latitude / Longitude
Inclination (degrees)
Orbital Period (minutes)
Azimuth
Elevation
Range (km)
Doppler Factor

Next 0 passes for location: London (51.5072 / 0.1276)

Sorry there are no passes over London.